EN

Hourly Weather Abertillery

Today, 19 June, Saturday

Time Temperature Precipitation Wind Pressure Humidity
00:00 +12°C° 0 mm 1 mps 741 mmHg 93%
01:00 +11°C° 0 mm 1 mps 741 mmHg 94%
02:00 +11°C° 0 mm 1 mps 741 mmHg 94%
03:00 +11°C° 0 mm 1 mps 741 mmHg 94%
04:00 +11°C° 0 mm 1 mps 741 mmHg 93%
05:00 +11°C° 0 mm 1 mps 741 mmHg 92%
06:00 +12°C° 0 mm 1 mps 740 mmHg 92%
07:00 +12°C° 0 mm 1 mps 740 mmHg 89%
08:00 +13°C° 0 mm 1 mps 740 mmHg 86%
09:00 +14°C° 0 mm 2 mps 740 mmHg 83%
10:00 +14°C° 0 mm 2 mps 740 mmHg 82%
11:00 +14°C° 0 mm 2 mps 740 mmHg 82%
12:00 +14°C° 0 mm 3 mps 740 mmHg 82%
13:00 +14°C° 0.1 mm 3 mps 739 mmHg 82%
14:00 +14°C° 0.1 mm 3 mps 739 mmHg 82%
15:00 +15°C° 0.1 mm 4 mps 738 mmHg 83%
16:00 +16°C° 0.1 mm 3 mps 738 mmHg 83%
17:00 +16°C° 0.1 mm 3 mps 737 mmHg 83%
18:00 +16°C° 0.1 mm 3 mps 737 mmHg 84%
19:00 +15°C° 0.1 mm 2 mps 737 mmHg 87%
20:00 +14°C° 0.1 mm 2 mps 737 mmHg 90%
21:00 +14°C° 0.1 mm 2 mps 737 mmHg 92%
22:00 +13°C° 0.1 mm 2 mps 736 mmHg 94%
23:00 +13°C° 0.1 mm 2 mps 736 mmHg 95%

Tomorrow, 20 June, Sunday

Time Temperature Precipitation Wind Pressure Humidity
00:00 +13°C° 0.1 mm 2 mps 736 mmHg 97%
01:00 +13°C° 0 mm 2 mps 735 mmHg 97%
02:00 +13°C° 0 mm 2 mps 735 mmHg 98%
03:00 +13°C° 0 mm 2 mps 735 mmHg 98%
04:00 +12°C° 0.1 mm 3 mps 735 mmHg 98%
05:00 +12°C° 0.1 mm 3 mps 735 mmHg 98%
06:00 +11°C° 0.1 mm 3 mps 735 mmHg 98%
07:00 +12°C° 0.1 mm 3 mps 735 mmHg 98%
08:00 +12°C° 0.1 mm 3 mps 735 mmHg 97%
09:00 +13°C° 0.1 mm 2 mps 735 mmHg 97%
10:00 +13°C° 0 mm 2 mps 735 mmHg 97%
11:00 +13°C° 0 mm 2 mps 735 mmHg 96%
12:00 +14°C° 0 mm 2 mps 735 mmHg 96%
13:00 +14°C° 0.1 mm 2 mps 735 mmHg 95%
14:00 +15°C° 0.1 mm 2 mps 735 mmHg 94%
15:00 +14°C° 0.1 mm 3 mps 735 mmHg 92%
16:00 +14°C° 0.1 mm 3 mps 735 mmHg 93%
17:00 +14°C° 0.1 mm 3 mps 735 mmHg 94%
18:00 +14°C° 0.1 mm 4 mps 735 mmHg 95%
19:00 +13°C° 0.1 mm 4 mps 736 mmHg 95%
20:00 +13°C° 0.1 mm 4 mps 736 mmHg 96%
21:00 +12°C° 0.1 mm 4 mps 736 mmHg 96%
22:00 +12°C° 0.1 mm 4 mps 736 mmHg 96%
23:00 +12°C° 0.1 mm 4 mps 736 mmHg 96%

Day after tomorrow, 21 June, Monday

Time Temperature Precipitation Wind Pressure Humidity
00:00 +11°C° 0.1 mm 4 mps 736 mmHg 97%
01:00 +11°C° 0.1 mm 4 mps 736 mmHg 97%
02:00 +11°C° 0.1 mm 4 mps 736 mmHg 97%
03:00 +11°C° 0.1 mm 4 mps 736 mmHg 97%
04:00 +10°C° 0.1 mm 5 mps 736 mmHg 96%
05:00 +9°C° 0.1 mm 5 mps 736 mmHg 96%
06:00 +9°C° 0.1 mm 5 mps 737 mmHg 96%
07:00 +9°C° 0.1 mm 6 mps 737 mmHg 95%
08:00 +9°C° 0.1 mm 6 mps 737 mmHg 95%
09:00 +9°C° 0.1 mm 6 mps 737 mmHg 94%
10:00 +9°C° 1 mm 7 mps 737 mmHg 94%
11:00 +9°C° 1 mm 7 mps 737 mmHg 95%
12:00 +9°C° 1 mm 7 mps 737 mmHg 95%
13:00 +9°C° 1.7 mm 7 mps 738 mmHg 95%
14:00 +9°C° 1.7 mm 8 mps 738 mmHg 95%
15:00 +9°C° 1.7 mm 8 mps 738 mmHg 95%
16:00 +9°C° 0.7 mm 8 mps 738 mmHg 95%
17:00 +9°C° 0.7 mm 8 mps 739 mmHg 95%
18:00 +8°C° 0.7 mm 9 mps 739 mmHg 94%
19:00 +9°C° 0.3 mm 8 mps 739 mmHg 94%
20:00 +7°C° 0.3 mm 8 mps 740 mmHg 94%
21:00 +7°C° 0.3 mm 8 mps 740 mmHg 94%
22:00 +7°C° 0.2 mm 8 mps 741 mmHg 94%
23:00 +8°C° 0.2 mm 7 mps 741 mmHg 94%

22 June, Tuesday

Time Temperature Precipitation Wind Pressure Humidity
00:00 +8°C° 0.2 mm 7 mps 741 mmHg 94%
01:00 +8°C° 0.2 mm 7 mps 741 mmHg 94%
02:00 +8°C° 0.2 mm 7 mps 742 mmHg 94%
03:00 +8°C° 0.2 mm 7 mps 742 mmHg 94%
04:00 +8°C° 0.2 mm 7 mps 742 mmHg 94%
05:00 +8°C° 0.2 mm 7 mps 742 mmHg 94%
06:00 +6°C° 0.2 mm 7 mps 743 mmHg 94%
07:00 +8°C° 0 mm 7 mps 743 mmHg 91%
08:00 +8°C° 0 mm 7 mps 743 mmHg 89%
09:00 +9°C° 0 mm 7 mps 744 mmHg 87%
10:00 +9°C° 0 mm 7 mps 744 mmHg 86%
11:00 +9°C° 0 mm 6 mps 744 mmHg 84%
12:00 +9°C° 0 mm 6 mps 744 mmHg 83%
13:00 +10°C° 0 mm 5 mps 745 mmHg 82%
14:00 +10°C° 0 mm 5 mps 745 mmHg 81%
15:00 +12°C° 0 mm 5 mps 745 mmHg 80%
16:00 +12°C° 0 mm 4 mps 745 mmHg 80%
17:00 +12°C° 0 mm 4 mps 745 mmHg 79%
18:00 +12°C° 0 mm 4 mps 745 mmHg 79%
19:00 +12°C° 0 mm 4 mps 745 mmHg 80%
20:00 +11°C° 0 mm 3 mps 746 mmHg 81%
21:00 +11°C° 0 mm 3 mps 746 mmHg 81%
22:00 +10°C° 0 mm 3 mps 746 mmHg 82%
23:00 +10°C° 0 mm 3 mps 746 mmHg 82%

23 June, Wednesday

Time Temperature Precipitation Wind Pressure Humidity
00:00 +8°C° 0 mm 4 mps 746 mmHg 83%
01:00 +8°C° 0 mm 4 mps 746 mmHg 85%
02:00 +8°C° 0 mm 3 mps 746 mmHg 86%
03:00 +7°C° 0 mm 3 mps 746 mmHg 88%
04:00 +8°C° 0 mm 3 mps 746 mmHg 87%
05:00 +8°C° 0 mm 3 mps 746 mmHg 86%
06:00 +9°C° 0 mm 3 mps 746 mmHg 86%
07:00 +10°C° 0 mm 4 mps 746 mmHg 79%
08:00 +11°C° 0 mm 4 mps 746 mmHg 72%
09:00 +13°C° 0 mm 4 mps 746 mmHg 66%
10:00 +14°C° 0 mm 4 mps 746 mmHg 62%
11:00 +15°C° 0 mm 4 mps 746 mmHg 59%
12:00 +17°C° 0 mm 4 mps 746 mmHg 55%
13:00 +17°C° 0 mm 3 mps 746 mmHg 55%
14:00 +18°C° 0 mm 3 mps 746 mmHg 54%
15:00 +18°C° 0 mm 3 mps 746 mmHg 54%
16:00 +18°C° 0 mm 2 mps 746 mmHg 59%
17:00 +17°C° 0 mm 2 mps 746 mmHg 64%
18:00 +17°C° 0 mm 2 mps 746 mmHg 68%
19:00 +15°C° 0 mm 2 mps 746 mmHg 72%
20:00 +14°C° 0 mm 2 mps 746 mmHg 75%
21:00 +12°C° 0 mm 1 mps 746 mmHg 79%
22:00 +11°C° 0 mm 1 mps 746 mmHg 80%
23:00 +11°C° 0 mm 1 mps 746 mmHg 81%

24 June, Thursday

Time Temperature Precipitation Wind Pressure Humidity
00:00 +10°C° 0 mm 1 mps 746 mmHg 82%
01:00 +10°C° 0 mm 1 mps 746 mmHg 83%
02:00 +10°C° 0 mm 1 mps 746 mmHg 84%
03:00 +10°C° 0 mm 1 mps 745 mmHg 84%
04:00 +9°C° 0 mm 0 mps 745 mmHg 83%
05:00 +10°C° 0 mm 0 mps 745 mmHg 81%
06:00 +11°C° 0 mm 0 mps 745 mmHg 80%
07:00 +14°C° 0 mm 1 mps 745 mmHg 75%
08:00 +15°C° 0 mm 2 mps 745 mmHg 71%
09:00 +17°C° 0 mm 2 mps 745 mmHg 67%
10:00 +17°C° 0 mm 3 mps 745 mmHg 66%
11:00 +18°C° 0 mm 3 mps 745 mmHg 65%
12:00 +19°C° 0 mm 3 mps 744 mmHg 64%
13:00 +18°C° 0 mm 4 mps 744 mmHg 67%
14:00 +18°C° 0 mm 4 mps 744 mmHg 70%
15:00 +17°C° 0 mm 5 mps 744 mmHg 74%
16:00 +16°C° 0 mm 5 mps 743 mmHg 75%
17:00 +15°C° 0 mm 4 mps 743 mmHg 76%
18:00 +15°C° 0 mm 4 mps 743 mmHg 78%
19:00 +13°C° 0 mm 3 mps 743 mmHg 82%
20:00 +12°C° 0 mm 3 mps 743 mmHg 87%
21:00 +12°C° 0 mm 2 mps 743 mmHg 91%
22:00 +12°C° 0 mm 2 mps 742 mmHg 91%
23:00 +12°C° 0 mm 2 mps 742 mmHg 91%
Show more